Overview Statistics Trail Chart Weather Telemetry Raw packets
 

This is the latest recevied weather packets stored in our database for station/object I0UVN-10. If no packets are shown the sender has not sent any weather packets the latest 10 day(s).

<< 23 24 25 26 27 28 29 >>
Time Temp. Humidity Pressure Rain* Wind** Luminosity Snow
1787979641 27.22° C 53% 1020.8 hPa - - - -
1787978441 27.78° C 54% 1020.6 hPa - - - -
1787977241 28.33° C 52% 1019.9 hPa - - - -
1787976039 28.33° C 51% 1019.8 hPa - - - -
1787974839 27.78° C 50% 1020.1 hPa - - - -
1787973639 28.33° C 49% 1020.6 hPa - - - -
1787972438 28.33° C 52% 1020.4 hPa - - - -
1787971238 28.33° C 53% 1019.9 hPa - - - -
1787970038 28.33° C 51% 1020.1 hPa - - - -
1787968838 28.89° C 50% 1020.3 hPa - - - -
1787967638 28.89° C 50% 1020.5 hPa - - - -
1787966438 28.33° C 51% 1020.6 hPa - - - -
1787965238 28.33° C 51% 1020.9 hPa - - - -
1787964037 28.89° C 55% 1021.1 hPa - - - -
1787962836 28.89° C 55% 1021.1 hPa - - - -
1787961636 28.89° C 50% 1020.6 hPa - - - -
1787960436 28.89° C 43% 1019.9 hPa - - - -
1787959236 29.44° C 42% 1019.8 hPa - - - -
1787958032 29.44° C 41% 1019.5 hPa - - - -
1787956831 29.44° C 40% 1019.6 hPa - - - -
1787955631 29.44° C 41% 1019.8 hPa - - - -
1787954431 29.44° C 41% 1020.1 hPa - - - -
1787953231 29.44° C 41% 1020.3 hPa - - - -
1787952031 28.89° C 43% 1020.4 hPa - - - -
1787950831 28.89° C 44% 1020.8 hPa - - - -

* Rain since midnight (hover to see other rain measurements)
** Current wind speed in m/s (hover to see current wind gust speed)